N4AC KSRQ-KSRQ

Flight info

Callsign N4AC
Flight time 0h 37m
Altitude 1500
Route VFR
Aircraft AS50/L-VGD/C

Departure

Time 2026-05-05 03:08
Airport Sarasota Bradenton International Airport (KSRQ)

Arrival

Time 2026-05-05 03:45
Airport Sarasota Bradenton International Airport (KSRQ)
Time Latitude Longitude Altitude Speed Heading
2026-05-05 03:08 27.57336 -82.54321 1489 ft 120 kts 12°
2026-05-05 03:08 27.58171 -82.54300 1492 ft 121 kts 12°
2026-05-05 03:08 27.59018 -82.54276 1493 ft 123 kts 12°
2026-05-05 03:08 27.59877 -82.54253 1492 ft 123 kts 12°
2026-05-05 03:09 27.60729 -82.54233 1494 ft 122 kts 11°
2026-05-05 03:09 27.61574 -82.54214 1494 ft 121 kts 11°
2026-05-05 03:09 27.62411 -82.54194 1495 ft 121 kts 12°
2026-05-05 03:09 27.63258 -82.54170 1496 ft 122 kts 12°
2026-05-05 03:10 27.64108 -82.54148 1493 ft 122 kts 11°
2026-05-05 03:10 27.64956 -82.54128 1495 ft 122 kts 11°
2026-05-05 03:10 27.65798 -82.54108 1496 ft 121 kts 11°
2026-05-05 03:10 27.66642 -82.54088 1497 ft 121 kts 12°
2026-05-05 03:11 27.67486 -82.54067 1497 ft 121 kts 11°
2026-05-05 03:11 27.68329 -82.54046 1498 ft 121 kts 11°
2026-05-05 03:11 27.69171 -82.54025 1498 ft 121 kts 11°
2026-05-05 03:11 27.70018 -82.54004 1499 ft 121 kts 11°
2026-05-05 03:12 27.70862 -82.53984 1499 ft 122 kts 11°
2026-05-05 03:12 27.71715 -82.53963 1500 ft 123 kts 11°
2026-05-05 03:12 27.72573 -82.53941 1500 ft 124 kts 11°
2026-05-05 03:12 27.73438 -82.53920 1499 ft 123 kts 10°
2026-05-05 03:13 27.74295 -82.53901 1499 ft 123 kts 10°
2026-05-05 03:13 27.75142 -82.53883 1499 ft 121 kts 11°
2026-05-05 03:13 27.75987 -82.53863 1500 ft 122 kts 11°
2026-05-05 03:13 27.76835 -82.53842 1500 ft 122 kts 11°
2026-05-05 03:14 27.77686 -82.53821 1501 ft 122 kts 11°
2026-05-05 03:14 27.78538 -82.53804 1532 ft 127 kts
2026-05-05 03:14 27.79480 -82.53826 1610 ft 146 kts
2026-05-05 03:14 27.80551 -82.53856 1534 ft 159 kts
2026-05-05 03:15 27.81658 -82.53850 1482 ft 154 kts
2026-05-05 03:15 27.82697 -82.53793 1502 ft 146 kts 10°
2026-05-05 03:15 27.83693 -82.53726 1501 ft 140 kts 11°
2026-05-05 03:15 27.84648 -82.53672 1507 ft 140 kts 10°
2026-05-05 03:16 27.85625 -82.53634 1505 ft 142 kts
2026-05-05 03:16 27.86626 -82.53605 1502 ft 145 kts
2026-05-05 03:16 27.87640 -82.53581 1499 ft 146 kts
2026-05-05 03:16 27.88653 -82.53559 1499 ft 146 kts
2026-05-05 03:17 27.89666 -82.53536 1497 ft 145 kts
2026-05-05 03:17 27.90684 -82.53510 1441 ft 146 kts
2026-05-05 03:17 27.91659 -82.53471 1487 ft 135 kts 11°
2026-05-05 03:17 27.92583 -82.53398 1390 ft 130 kts 16°
2026-05-05 03:18 27.93468 -82.53276 1192 ft 130 kts 17°
2026-05-05 03:18 27.94345 -82.53106 1013 ft 124 kts 18°
2026-05-05 03:18 27.95142 -82.52917 734 ft 108 kts 22°
2026-05-05 03:18 27.95786 -82.52740 471 ft 82 kts 19°
2026-05-05 03:19 27.96526 -82.52665 66 ft 15 kts 356°
2026-05-05 03:19 27.96562 -82.52646 52 ft 3 kts 78°
2026-05-05 03:19 27.96560 -82.52640 41 ft 3 kts 84°
2026-05-05 03:20 27.96562 -82.52639 36 ft 0 kts 83°
2026-05-05 03:23 27.96560 -82.52637 50 ft 2 kts 77°
2026-05-05 03:23 27.96525 -82.52694 94 ft 21 kts 194°
2026-05-05 03:23 27.96465 -82.52888 110 ft 25 kts 352°
2026-05-05 03:24 27.96655 -82.52882 154 ft 42 kts 11°
2026-05-05 03:24 27.97057 -82.52864 205 ft 71 kts
2026-05-05 03:24 27.97599 -82.52852 354 ft 77 kts
2026-05-05 03:24 27.98148 -82.52842 574 ft 80 kts
2026-05-05 03:25 27.98642 -82.52638 848 ft 71 kts 64°
2026-05-05 03:25 27.98437 -82.52186 933 ft 89 kts 149°
2026-05-05 03:25 27.97768 -82.52028 900 ft 106 kts 162°
2026-05-05 03:25 27.97026 -82.51877 884 ft 109 kts 163°
2026-05-05 03:26 27.96549 -82.51783 985 ft 102 kts 162°
2026-05-05 03:26 27.95848 -82.51650 1109 ft 102 kts 164°
2026-05-05 03:26 27.95146 -82.51635 1312 ft 100 kts 173°
2026-05-05 03:26 27.94467 -82.51669 1468 ft 98 kts 173°
2026-05-05 03:27 27.93778 -82.51701 1532 ft 104 kts 171°
2026-05-05 03:27 27.93035 -82.51735 1526 ft 109 kts 173°
2026-05-05 03:27 27.92262 -82.51775 1520 ft 113 kts 173°
2026-05-05 03:27 27.91469 -82.51820 1517 ft 115 kts 173°
2026-05-05 03:28 27.90674 -82.51869 1495 ft 114 kts 173°
2026-05-05 03:28 27.89883 -82.51920 1498 ft 113 kts 173°
2026-05-05 03:28 27.89097 -82.51975 1499 ft 113 kts 175°
2026-05-05 03:28 27.88319 -82.52037 1500 ft 114 kts 174°
2026-05-05 03:29 27.87528 -82.52100 1502 ft 114 kts 174°
2026-05-05 03:29 27.86734 -82.52161 1503 ft 115 kts 174°
2026-05-05 03:29 27.85935 -82.52218 1502 ft 115 kts 174°
2026-05-05 03:29 27.85132 -82.52274 1499 ft 115 kts 174°
2026-05-05 03:30 27.84335 -82.52330 1499 ft 115 kts 174°
2026-05-05 03:30 27.83537 -82.52385 1499 ft 115 kts 173°
2026-05-05 03:30 27.82739 -82.52439 1499 ft 115 kts 173°
2026-05-05 03:30 27.81943 -82.52495 1498 ft 114 kts 173°
2026-05-05 03:31 27.81151 -82.52550 1501 ft 114 kts 174°
2026-05-05 03:31 27.80373 -82.52603 1501 ft 115 kts 174°
2026-05-05 03:31 27.79570 -82.52658 1500 ft 116 kts 174°
2026-05-05 03:31 27.78764 -82.52713 1498 ft 115 kts 173°
2026-05-05 03:32 27.77973 -82.52768 1498 ft 112 kts 174°
2026-05-05 03:32 27.77195 -82.52822 1500 ft 112 kts 173°
2026-05-05 03:32 27.76413 -82.52877 1500 ft 113 kts 174°
2026-05-05 03:32 27.75625 -82.52930 1501 ft 114 kts 174°
2026-05-05 03:33 27.74830 -82.53042 1500 ft 117 kts 182°
2026-05-05 03:33 27.74036 -82.53303 1500 ft 120 kts 188°
2026-05-05 03:33 27.73241 -82.53613 1498 ft 121 kts 190°
2026-05-05 03:33 27.72445 -82.53919 1500 ft 122 kts 190°
2026-05-05 03:34 27.71643 -82.54223 1500 ft 122 kts 189°
2026-05-05 03:34 27.70846 -82.54544 1499 ft 121 kts 189°
2026-05-05 03:34 27.70055 -82.54874 1499 ft 121 kts 190°
2026-05-05 03:34 27.69266 -82.55204 1497 ft 121 kts 190°
2026-05-05 03:35 27.68479 -82.55532 1498 ft 120 kts 189°
2026-05-05 03:35 27.67691 -82.55859 1499 ft 120 kts 190°
2026-05-05 03:35 27.66904 -82.56183 1498 ft 121 kts 189°
2026-05-05 03:35 27.66109 -82.56517 1498 ft 122 kts 190°
2026-05-05 03:36 27.65316 -82.56846 1496 ft 121 kts 189°
2026-05-05 03:36 27.64524 -82.57171 1496 ft 121 kts 189°
2026-05-05 03:36 27.63739 -82.57489 1496 ft 120 kts 189°
2026-05-05 03:36 27.62957 -82.57805 1494 ft 119 kts 189°
2026-05-05 03:37 27.62172 -82.58125 1495 ft 121 kts 189°
2026-05-05 03:37 27.61379 -82.58451 1494 ft 122 kts 189°
2026-05-05 03:37 27.60585 -82.58779 1494 ft 121 kts 189°
2026-05-05 03:37 27.59795 -82.59099 1493 ft 120 kts 189°
2026-05-05 03:38 27.59007 -82.59411 1493 ft 120 kts 189°
2026-05-05 03:38 27.58216 -82.59725 1493 ft 120 kts 189°
2026-05-05 03:38 27.57427 -82.60039 1491 ft 120 kts 189°
2026-05-05 03:38 27.56639 -82.60355 1492 ft 121 kts 189°
2026-05-05 03:39 27.55843 -82.60671 1486 ft 122 kts 189°
2026-05-05 03:39 27.55047 -82.60988 1487 ft 121 kts 189°
2026-05-05 03:39 27.54251 -82.61304 1486 ft 121 kts 189°
2026-05-05 03:39 27.53454 -82.61618 1486 ft 121 kts 189°
2026-05-05 03:40 27.52661 -82.61927 1489 ft 120 kts 189°
2026-05-05 03:40 27.51870 -82.62236 1488 ft 121 kts 188°
2026-05-05 03:40 27.51085 -82.62551 1487 ft 121 kts 189°
2026-05-05 03:40 27.50284 -82.62879 1483 ft 120 kts 189°
2026-05-05 03:41 27.49498 -82.63111 1482 ft 117 kts 181°
2026-05-05 03:41 27.48698 -82.63258 1485 ft 117 kts 178°
2026-05-05 03:41 27.47890 -82.63383 1484 ft 117 kts 178°
2026-05-05 03:41 27.47074 -82.63454 1482 ft 115 kts 171°
2026-05-05 03:42 27.46290 -82.63419 1480 ft 114 kts 167°
2026-05-05 03:42 27.45507 -82.63362 1481 ft 112 kts 167°
2026-05-05 03:42 27.44684 -82.63281 1493 ft 126 kts 165°
2026-05-05 03:42 27.43793 -82.63180 1478 ft 131 kts 166°
2026-05-05 03:43 27.42872 -82.63071 1477 ft 135 kts 166°
2026-05-05 03:43 27.41931 -82.62970 1498 ft 137 kts 166°
2026-05-05 03:43 27.40991 -82.62885 1497 ft 138 kts 167°
2026-05-05 03:43 27.40025 -82.62799 1474 ft 139 kts 166°
2026-05-05 03:44 27.39087 -82.62678 1301 ft 126 kts 167°
2026-05-05 03:44 27.38303 -82.62624 1106 ft 101 kts 173°
2026-05-05 03:44 27.37663 -82.62681 906 ft 85 kts 178°
2026-05-05 03:44 27.37103 -82.62724 675 ft 71 kts 176°
2026-05-05 03:45 27.36684 -82.62670 508 ft 54 kts 156°
2026-05-05 03:45 27.36410 -82.62497 211 ft 36 kts 154°
2026-05-05 03:45 27.36199 -82.62346 157 ft 36 kts 147°
2026-05-05 03:45 27.36020 -82.62175 85 ft 27 kts 140°
2026-05-05 03:46 27.35964 -82.62094 27 ft 6 kts 138°
2026-05-05 03:46 27.35960 -82.62081 15 ft 0 kts 136°
2026-05-05 04:00 27.35956 -82.62076 18 ft 3 kts 135°
2026-05-05 04:01 27.35887 -82.61991 67 ft 30 kts 136°
2026-05-05 04:01 27.35956 -82.61710 327 ft 63 kts 36°
2026-05-05 04:01 27.36379 -82.61496 643 ft 72 kts 37°
2026-05-05 04:01 27.36750 -82.61118 923 ft 71 kts 55°
2026-05-05 04:02 27.37081 -82.60655 1053 ft 81 kts 60°
2026-05-05 04:02 27.37445 -82.60147 1087 ft 85 kts 65°
2026-05-05 04:02 27.37708 -82.59537 1070 ft 90 kts 75°
2026-05-05 04:02 27.37869 -82.58924 1202 ft 80 kts 78°
2026-05-05 04:03 27.38069 -82.58254 1075 ft 94 kts 78°
2026-05-05 04:03 27.38248 -82.57554 978 ft 89 kts 80°
2026-05-05 04:03 27.38458 -82.56932 846 ft 83 kts 69°
2026-05-05 04:03 27.38781 -82.56450 637 ft 66 kts 61°
2026-05-05 04:04 27.39030 -82.56149 344 ft 43 kts 66°
2026-05-05 04:04 27.39156 -82.55884 184 ft 36 kts 71°
2026-05-05 04:04 27.39261 -82.55670 71 ft 29 kts 61°
2026-05-05 04:04 27.39392 -82.55562 52 ft 17 kts
2026-05-05 04:05 27.39475 -82.55622 53 ft 15 kts 334°
2026-05-05 04:05 27.39510 -82.55698 60 ft 16 kts 253°
2026-05-05 04:05 27.39498 -82.55776 41 ft 7 kts 215°
2026-05-05 04:05 27.39484 -82.55789 38 ft 4 kts 183°
2026-05-05 04:06 27.39473 -82.55794 27 ft 0 kts 175°